This is the latest recevied weather packets stored in our database for station/object WC4PEM-14. If no packets are shown the sender has not sent any weather packets the latest 10 day(s).
| Time | Temp. | Humidity | Pressure | Rain* | Wind** | Luminosity | Snow |
|---|---|---|---|---|---|---|---|
| 1777671797 | 33.33° C | 42% | 1008.3 hPa | 0 mm | - | - | - |
| 1777671656 | 33.33° C | 42% | 1008.4 hPa | 0 mm | - | - | - |
| 1777671621 | 33.33° C | 42% | 1008.4 hPa | 0 mm | - | - | - |
| 1777671497 | 33.33° C | 42% | 1008.4 hPa | 0 mm | - | - | - |
| 1777671230 | 32.78° C | 44% | 1008.5 hPa | 0 mm | - | - | - |
| 1777671197 | 32.78° C | 44% | 1008.5 hPa | 0 mm | - | - | - |
| 1777670973 | 32.22° C | 45% | 1008.4 hPa | 0 mm | - | - | - |
| 1777670936 | 32.22° C | 45% | 1008.4 hPa | 0 mm | - | - | - |
| 1777670897 | 32.22° C | 45% | 1008.4 hPa | 0 mm | - | - | - |
| 1777670700 | 32.22° C | 44% | 1008.3 hPa | 0 mm | - | - | - |
| 1777670635 | 32.22° C | 44% | 1008.3 hPa | 0 mm | - | - | - |
| 1777670597 | 32.22° C | 44% | 1008.3 hPa | 0 mm | - | - | - |
| 1777670396 | 32.22° C | 44% | 1008.2 hPa | 0 mm | - | - | - |
| 1777670297 | 32.22° C | 44% | 1008.2 hPa | 0 mm | - | - | - |
| 1777669997 | 32.78° C | 44% | 1008.4 hPa | 0 mm | - | - | - |
| 1777669782 | 32.78° C | 44% | 1008.4 hPa | 0 mm | - | - | - |
| 1777669697 | 32.78° C | 44% | 1008.4 hPa | 0 mm | - | - | - |
| 1777669519 | 32.78° C | 44% | 1008.5 hPa | 0 mm | - | - | - |
| 1777669397 | 32.78° C | 44% | 1008.5 hPa | 0 mm | - | - | - |
| 1777669097 | 32.78° C | 43% | 1008.6 hPa | 0 mm | - | - | - |
| 1777668835 | 32.78° C | 42% | 1008.4 hPa | 0 mm | - | - | - |
| 1777668797 | 32.78° C | 42% | 1008.4 hPa | 0 mm | - | - | - |
| 1777668497 | 33.89° C | 41% | 1008.4 hPa | 0 mm | - | - | - |
| 1777668249 | 34.44° C | 40% | 1008.5 hPa | 0 mm | - | - | - |
| 1777668197 | 34.44° C | 40% | 1008.5 hPa | 0 mm | - | - | - |
* Rain latest hour (hover to see other rain measurements)
** Current wind speed in m/s (hover to see current wind gust speed)